Zurück zum Katalog

COSMOS 2379

AktivMilitärGEO
NORAD 26892·PAYLOAD·🇷🇺 Russia

Gestartet Aug 24, 2001 von Baikonur Cosmodrome

Loading…

TLE

AktuellSource: Space-Track

Epoche: Sep 14, 2026, 05:51 UTC

1 26892U 01037A   26257.24379083 -.00000371  00000-0  00000-0 0  9998
2 26892  13.3381  13.6094 0006525 238.7821 315.3779  1.00230858 91754

Verfolge COSMOS 2379 in Echtzeit mit AllMySat

Download on the App Store